Regional Weather Roundup
Issued by NWS

Home | Current Version | Previous Version | Graphics & Text | Print | Product List | Glossary On
Versions: 1 2 3 4 5 6 7 8 9 10 11 12 13 14 15 16 17 18 19 20 21 22 23 24 25 26 27 28 29 30 31 32 33 34 35 36 37 38 39 40 41 42 43 44 45 46 47 48 49 50
000
ASUS43 KMPX 201710
RWRMN
WEATHER ROUNDUP FOR MINNESOTA
NATIONAL WEATHER SERVICE TWIN CITIES/CHANHASSEN MN
1200 PM CDT SUN MAY 20 2018


NOTE: "FAIR" INDICATES FEW OR NO CLOUDS BELOW 12,000 FEET WITH NO
SIGNIFICANT WEATHER AND/OR OBSTRUCTIONS TO VISIBILITY. N/A MEANS
CURRENT SKY AND/OR WEATHER CONDITIONS ARE NOT AVAILABLE.

MNZ060>063-068>070-201800-
   Twin Cities Metro

CITY           SKY/WX    TMP DP  RH WIND       PRES   REMARKS
TWIN CITIES    PTSUNNY   61  40  45 NE12      30.24S
ST PAUL        FAIR      62  39  42 E13G20    30.25R
CRYSTAL        FAIR      61  31  32 E9        30.24R
BLAINE         MOSUNNY   63  28  27 E12       30.25R
LAKEVILLE      FAIR      59  45  58 NE7       30.23F
EDEN PRAIRIE   FAIR      60  41  49 E12G17    30.23S
SOUTH ST PAUL  FAIR      61  37  41 NE8       30.24S
LAKE ELMO      FAIR      63  36  36 NE12      30.25S
$$
MNZ001>005-007-008-013>017-022>024-027-028-201800-
   Northwest Minnesota

CITY           SKY/WX    TMP DP  RH WIND       PRES   REMARKS
BEMIDJI        FAIR      64  32  30 SW3       30.27S
HALLOCK        FAIR      70  39  32 SW8       30.21F
ROSEAU         FAIR      66  43  42 SW7       30.23S
WARROAD        FAIR      66  39  37 W9        30.23F
THIEF RVR FALL FAIR      65  32  29 VRB3      30.27S
CROOKSTON      FAIR      66  36  32 SW7       30.26F
FOSSTON        FAIR      64  32  29 SW6       30.28S
DETROIT LAKES  FAIR      63  32  31 S5        30.29F
MOORHEAD       FAIR      64  34  32 CALM      30.28F
PARK RAPIDS    FAIR      62  34  35 SE6       30.28S
MAHNOMEN       FAIR      63  36  36 CALM      30.28S
$$
MNZ006-009>011-018-025>026-201800-
   North Central Minnesota

CITY           SKY/WX    TMP DP  RH WIND       PRES   REMARKS
BAUDETTE       FAIR      68  31  25 NW7       30.23F
FLAG ISLAND    FAIR      55  43  62 SE12      30.20F
INTL FALLS     FAIR      67  31  26 W8G17     30.23F
WASKISH        CLOUDY    63  39  42 W7        30.26F
BIG FORK       FAIR      66  32  28 NE3       30.25F
LONGVILLE      FAIR      63  36  36 CALM      30.29S
GRAND RAPIDS   FAIR      60  34  37 CALM      30.30F
CRANE LAKE     FAIR      63  28  27 SW5       30.25F
ORR            FAIR      64  30  27 CALM      30.23F
COOK           FAIR      63  34  34 CALM      30.26F
WALKER         FAIR      61  32  33 E5        30.28S
$$
MNZ012-019>021-037-201800-
   Northeast Minnesota

CITY           SKY/WX    TMP DP  RH WIND       PRES   REMARKS
DULUTH         FAIR      60  28  29 VRB6      30.28F
ELY            FAIR      61  30  31 CALM      30.25F
HIBBING        FAIR      61  35  37 CALM      30.27F
EVELETH        FAIR      61  34  36 S5        30.28S
DULUTH HARBOR  FAIR      52  41  66 NE7       30.30F
TWO HARBORS    FAIR      64  39  39 SE9       30.26F
SILVER BAY     FAIR      61  30  31 S9        30.25F
GRAND MARAIS     N/A     47  33  58 W12       30.27S
G MARAIS ARPRT FAIR      59  28  31 S7        30.25S
$$
MNZ029>031-032-039>041-046>048-054>057-064-201800-
   West Central Minnesota

CITY           SKY/WX    TMP DP  RH WIND       PRES   REMARKS
FERGUS FALLS   FAIR      63  30  29 E8        30.23F
WHEATON        SUNNY     63  28  27 E9        30.27F
MORRIS         CLOUDY    63  34  34 NE10      30.25F
ALEXANDRIA     FAIR      64  33  31 NE13      30.27F
ELBOW LAKE     FAIR      60  33  36 E8        30.27F
WADENA         FAIR      63  36  36 SE14      30.27F
GLENWOOD       FAIR      63  32  31 E13G18    30.26F
APPLETON       MOSUNNY   63  28  27 E12G17    30.24F
BENSON         MOSUNNY   63  28  27 E8        30.26S
ORTONVILLE     MOSUNNY   61  32  33 NE9       30.25F
MADISON        CLOUDY    64  28  25 NE15      30.24S
WILLMAR        FAIR      63  28  27 NE15      30.27R
$$
MNZ033>034-036-042>043-049>051-058-059-201800-
   Central Minnesota

CITY           SKY/WX    TMP DP  RH WIND       PRES   REMARKS
ST CLOUD       FAIR      61  23  23 NE9       30.26S
SAUK CENTRE    FAIR      60  32  35 NE10G17   30.26F
PAYNESVILLE    FAIR      61  27  27 E9G18     30.26S
AITKIN         FAIR      61  34  36 E8        30.27S
PINE RIVER     FAIR      59  34  38 SE6       30.31S
BRAINERD       FAIR      64  33  31 E9        30.28S
STAPLES        FAIR      63  28  27 E8        30.27F
LONG PRAIRIE   FAIR      59  32  36 N8        30.27F
LITTLE FALLS   FAIR      61  32  33 E7        30.27F
LITCHFIELD     FAIR      64  28  25 E14       30.25R
BUFFALO        FAIR      60  29  31 NE13G20   30.25F
MAPLE LAKE     FAIR      64  32  31 E10       30.25F
HUTCHINSON     FAIR      64  38  39 E14G21    30.24S
$$
MNZ037-044-045-052-053-201800-
   East Central Minnesota

CITY           SKY/WX    TMP DP  RH WIND       PRES   REMARKS
PRINCETON      FAIR      63  28  27 E8        30.27R
MORA           FAIR      59  30  33 E5        30.28F
CAMBRIDGE      FAIR      63  39  42 NE7       30.26S
RUSH CITY      FAIR      61  26  26 E6        30.26S
MOOSE LAKE     FAIR      61  34  36 N8        30.26S
HINCKLEY       FAIR      61  32  33 E12       30.27F
CLOQUET        FAIR      61  25  25 N6        30.28S
MCGREGOR       FAIR      61  32  33 E7        30.29S
$$
MNZ071>073-080-081-089-090-097-098-201800-
   Southwest Minnesota

CITY           SKY/WX    TMP DP  RH WIND       PRES   REMARKS
MONTEVIDEO     CLOUDY    64  27  24 SE10      30.24S
GRANITE FALLS  CLOUDY    63  32  31 E10       30.25R
CANBY          CLOUDY    63  31  30 NE10G17   30.26S
MARSHALL       MOSUNNY   59  36  42 NE10      30.23F
REDWOOD FALLS  SUNNY     64  38  38 E14G21    30.22R
OLIVIA         CLOUDY    61  32  33 E7G16     30.22S
PIPESTONE      CLOUDY    55  39  54 E10       30.21S
WINDOM         CLOUDY    54  32  43 E7        30.22R
WORTHINGTON    CLOUDY    51  41  68 NE13      30.22R
JACKSON        CLOUDY    52  41  66 NE10      30.22S
TRACY          CLOUDY    59  42  53 NE10      30.22F
SLAYTON        CLOUDY    54  40  57 NE10      30.22F
$$
MNZ065>067-074>077-082>085-091>093-201800-
   South Central Minnesota

CITY           SKY/WX    TMP DP  RH WIND       PRES   REMARKS
MANKATO        CLOUDY    53  42  66 E8        30.24R
NEW ULM        MOSUNNY   57  43  58 E8        30.22S
ST JAMES       PTSUNNY   54  43  66 NE10      30.23S
FAIRMONT       PTSUNNY   55  44  66 E8        30.21S
GLENCOE        FAIR      62  45  54 NE10      30.22F
FARIBAULT      CLOUDY    55  45  67 CALM      30.23S
OWATONNA       PTSUNNY   52  45  76 E8        30.23S
WASECA         CLOUDY    52  43  71 NE12      30.23F
ALBERT LEA     CLOUDY    52  43  71 E9        30.21S
$$
MNZ078>079-086>088-094>096-201800-
   Southeast Minnesota

CITY           SKY/WX    TMP DP  RH WIND       PRES   REMARKS
ROCHESTER      CLOUDY    49  46  90 E12       30.24R
RED WING       FAIR      57  37  47 S5        30.23S
STANTON        FAIR      58  43  56 NE6       30.23S
DODGE CENTER   CLOUDY    50  41  71 E9        30.23S
WINONA         CLOUDY    54  43  66 SE7       30.22S
AUSTIN         CLOUDY    50  45  81 E8        30.21F
PRESTON        CLOUDY    47  44  87 NE9       30.23S
$$
ABBREVIATIONS USED IN REMARKS
   TC - TEMPERATURES IN CELSIUS
  WCI - WIND CHILL INDEX
   HX - HEAT INDEX
  VSB - VISIBILITY
$$




USA.gov is the U.S. government's official web portal to all federal, state and local government web resources and services.